Burlington, WA
on Wednesday, January 30, 2013

Wednesday
Previous Day Next Day
Daily Summary
 ActualAverage (KBLI)Record (KBLI)
Temperature
Mean Temperature °F 40°F  
Max Temperature 48°F 47°F 60°F (1992)
Min Temperature 39°F 33°F 9°F (1950)
Degree Days
Heating Degree Days 22 25  
Month to date heating degree days 773  
Cooling Degree Days 0 0  
Month to date cooling degree days 0  
Year to date cooling degree days 0  
Moisture
Dew Point 43°F   
Average Humidity 100    
Maximum Humidity 100    
Minimum Humidity 100    
Precipitation
Precipitation 0.25 in 0.14 in 1.74 in (1971)
Month to date precipitation 4.53  
Year to date precipitation 4.53  
Wind
Wind Speed 4 mph   
Max Wind Speed 7 mph   
Max Gust Speed mph   
Visibility 4 miles   
Events     

Key: T is trace of precipitation, MM is missing value
Source: NWS Daily Summary
Time(PST)TemperatureDew PointHumidity Pressure Visibility Wind DirectionWind SpeedGust SpeedPrecipitationEvents Conditions
12:15 AM 41.0°F 41.0°F 100% 30.33 in 3.0 miles ENE 4.6 mph - 0.00 in   Overcast
12:35 AM 41.0°F 41.0°F 100% 30.33 in 3.0 miles ENE 6.9 mph - 0.01 in   Overcast
12:55 AM 42.8°F 42.8°F 100% 30.34 in 3.0 miles Calm Calm - 0.01 in   Overcast
1:15 AM 41.0°F 41.0°F 100% 30.34 in 3.0 miles ENE 6.9 mph - 0.00 in   Overcast
1:55 AM 41.0°F 41.0°F 100% 30.34 in 3.0 miles ENE 5.8 mph - 0.01 in   Overcast
2:15 AM 41.0°F 41.0°F 100% 30.34 in 3.0 miles East 3.5 mph - 0.00 in   Overcast
2:35 AM 41.0°F 41.0°F 100% 30.35 in 2.5 miles ENE 4.6 mph - 0.01 in   Overcast
2:55 AM 41.0°F 41.0°F 100% 30.35 in 2.5 miles ENE 4.6 mph - 0.01 in   Overcast
3:15 AM 41.0°F 41.0°F 100% 30.35 in 2.5 miles ENE 4.6 mph - 0.01 in   Overcast
3:35 AM 41.0°F 41.0°F 100% 30.34 in 2.0 miles ENE 3.5 mph - 0.01 in   Overcast
3:55 AM 41.0°F 41.0°F 100% 30.35 in 2.0 miles NE 4.6 mph - 0.02 in   Overcast
4:15 AM 41.0°F 41.0°F 100% 30.35 in 2.0 miles Calm Calm - 0.00 in   Overcast
4:35 AM 41.0°F 41.0°F 100% 30.34 in 2.0 miles Calm Calm - 0.00 in   Overcast
4:55 AM 42.8°F 42.8°F 100% 30.34 in 3.0 miles Calm Calm - 0.01 in   Overcast
5:15 AM 41.0°F 41.0°F 100% 30.34 in 2.5 miles NE 3.5 mph - 0.00 in   Overcast
5:35 AM 41.0°F 41.0°F 100% 30.34 in 2.0 miles NE 4.6 mph - 0.00 in   Overcast
5:55 AM 41.0°F 41.0°F 100% 30.34 in 1.8 miles ENE 3.5 mph - 0.01 in   Overcast
6:15 AM 41.0°F 41.0°F 100% 30.35 in 1.8 miles Calm Calm - 0.00 in   Overcast
6:35 AM 41.0°F 41.0°F 100% 30.35 in 1.8 miles NE 5.8 mph - 0.02 in   Overcast
6:55 AM 39.2°F 39.2°F 100% 30.35 in 2.0 miles NE 5.8 mph - 0.02 in   Overcast
7:15 AM 39.2°F 39.2°F 100% 30.35 in 2.5 miles ENE 3.5 mph - 0.01 in   Overcast
7:35 AM 39.2°F 39.2°F 100% 30.36 in 2.5 miles NE 4.6 mph - 0.02 in   Overcast
7:55 AM 39.2°F 39.2°F 100% 30.36 in 2.5 miles ENE 3.5 mph - 0.02 in   Overcast
8:15 AM 41.0°F 41.0°F 100% 30.36 in 3.0 miles NE 4.6 mph - 0.00 in   Overcast
8:35 AM 41.0°F 41.0°F 100% 30.36 in 7.0 miles NE 4.6 mph - 0.00 in   Overcast
8:55 AM 41.0°F 41.0°F 100% 30.37 in 9.0 miles NE 5.8 mph - 0.00 in   Overcast
9:15 AM 41.0°F 41.0°F 100% 30.37 in 10.0 miles NE 6.9 mph - 0.00 in   Overcast
9:35 AM 42.8°F 42.8°F 100% 30.37 in 10.0 miles NE 5.8 mph - 0.00 in   Overcast
9:55 AM 42.8°F 42.8°F 100% 30.38 in 10.0 miles NNE 3.5 mph - 0.00 in   Overcast
10:15 AM 42.8°F 42.8°F 100% 30.38 in 10.0 miles NNE 3.5 mph - 0.00 in   Overcast
10:35 AM 42.8°F 42.8°F 100% 30.39 in 10.0 miles NNE 4.6 mph - 0.00 in   Overcast
10:55 AM 42.8°F 42.8°F 100% 30.39 in 9.0 miles NE 3.5 mph - 0.00 in   Overcast
11:15 AM 42.8°F 42.8°F 100% 30.39 in 9.0 miles NE 4.6 mph - 0.00 in   Overcast
11:35 AM 44.6°F 44.6°F 100% 30.38 in 8.0 miles Calm Calm - 0.00 in   Overcast
11:55 AM 44.6°F 44.6°F 100% 30.38 in 10.0 miles Calm Calm - 0.00 in   Overcast
12:15 PM 44.6°F 44.6°F 100% 30.38 in 8.0 miles ENE 3.5 mph - 0.00 in   Overcast
2:15 PM 48.2°F 48.2°F 100% 30.38 in 10.0 miles South 5.8 mph - 0.00 in   Overcast
2:55 PM 48.2°F 48.2°F 100% 30.37 in 10.0 miles South 5.8 mph - 0.00 in   Overcast
3:15 PM 46.4°F 46.4°F 100% 30.38 in 6.0 miles South 5.8 mph - 0.00 in   Overcast
3:35 PM 46.4°F 46.4°F 100% 30.38 in 5.0 miles South 6.9 mph - 0.00 in   Overcast
3:55 PM 46.4°F 46.4°F 100% 30.38 in 5.0 miles South 5.8 mph - 0.00 in   Overcast
4:15 PM 46.4°F 46.4°F 100% 30.38 in 2.0 miles South 4.6 mph - 0.00 in   Overcast
4:35 PM 46.4°F 46.4°F 100% 30.38 in 1.8 miles South 4.6 mph - 0.00 in   Overcast
4:55 PM 46.4°F 46.4°F 100% 30.38 in 1.5 miles SSE 4.6 mph - 0.00 in   Overcast
5:15 PM 46.4°F 46.4°F 100% 30.38 in 4.0 miles SSE 3.5 mph - 0.00 in   Overcast
5:35 PM 46.4°F 46.4°F 100% 30.38 in 2.5 miles SSE 3.5 mph - 0.00 in   Overcast
5:55 PM 46.4°F 46.4°F 100% 30.38 in 1.8 miles SSE 3.5 mph - 0.00 in   Overcast
6:15 PM 46.4°F 46.4°F 100% 30.38 in 1.5 miles Calm Calm - 0.00 in   Overcast
6:55 PM 44.6°F 44.6°F 100% 30.37 in 2.5 miles Calm Calm - 0.01 in   Overcast
7:15 PM 44.6°F 44.6°F 100% 30.37 in 2.5 miles Calm Calm - 0.00 in   Overcast
7:55 PM 44.6°F 44.6°F 100% 30.37 in 1.8 miles Calm Calm - 0.01 in   Overcast
8:15 PM 44.6°F 44.6°F 100% 30.38 in 1.5 miles Calm Calm - 0.00 in   Overcast
8:35 PM 44.6°F 44.6°F 100% 30.38 in 1.5 miles NE 3.5 mph - 0.01 in   Overcast
8:55 PM 44.6°F 44.6°F 100% 30.38 in 2.0 miles NNE 3.5 mph - 0.03 in   Overcast
9:15 PM 44.6°F 44.6°F 100% 30.38 in 2.0 miles Calm Calm - 0.01 in   Overcast
9:35 PM 44.6°F 44.6°F 100% 30.38 in 1.8 miles NE 3.5 mph - 0.02 in   Overcast
9:55 PM 44.6°F 44.6°F 100% 30.38 in 1.8 miles ENE 3.5 mph - 0.04 in   Overcast
10:15 PM 44.6°F 44.6°F 100% 30.38 in 2.5 miles Calm Calm - 0.02 in   Overcast
10:35 PM 44.6°F 44.6°F 100% 30.37 in 2.5 miles Calm Calm - 0.02 in   Overcast
10:55 PM 44.6°F 44.6°F 100% 30.37 in 3.0 miles Calm Calm - 0.03 in   Overcast
11:15 PM 44.6°F 44.6°F 100% 30.38 in 3.0 miles Calm Calm - 0.00 in   Overcast
11:35 PM 44.6°F 44.6°F 100% 30.38 in 3.0 miles Calm Calm - 0.01 in   Overcast
11:55 PM 44.6°F 44.6°F 100% 30.38 in 2.0 miles Calm Calm - 0.02 in   Overcast
Moon Phase
Jan. 30 Feb. 03 Feb. 10 Feb. 17 Feb. 25
Sunrise:07:40 AM (PST) Moon Rise:09:35 PM (PST)1/30
Sunset:05:05 PM (PST) Moon Set:08:49 AM (PST)1/30

Copyright © 2014 The Weather Underground, Inc.